Viroqua, WI

8:00 PM CDT on August 31, 2016 (GMT -0500)
Viroqua

Weather History for KY51 - March, 2014

Change the Weather History Date:

Wednesday, March 26, 2014

  Actual Average (KLSE) Record (KLSE)
Temperature  
Mean Temperature 25 °F 39 °F  
Max Temperature 40 °F 49 °F 83 °F (2007)
Min Temperature 12 °F 29 °F -2 °F (1965)
Degree Days  
Heating Degree Days 40 26  
Month to date heating degree days 822  
Since 1 July heating degree days 6331  
Cooling Degree Days 0 0  
Month to date cooling degree days 0  
Year to date cooling degree days 0  
Moisture  
Dew Point 14 °F    
Average Humidity 61    
Maximum Humidity 78    
Minimum Humidity 42    
Precipitation  
Precipitation 0.00 in 0.08 in 1.09 in (1967)
Month to date precipitation 1.64  
Year to date precipitation 3.81  
Snow  
Snow 0.00 in 0.20 in 5.60 in (1959)
Month to date snowfall 6.4  
Since 1 July snowfall 40.9  
Snow Depth -    
Sea Level Pressure  
Sea Level Pressure 30.02 in    
Wind  
Wind Speed 10 mph (South)    
Max Wind Speed 23 mph    
Max Gust Speed 30 mph    
Visibility 10 miles    
Events      
T = Trace of Precipitation, MM = Missing Value Source: NWS Daily Summary

Daily Weather History Graph

Daily Weather History Graph

Search for Another Location

Airport or City:

Trip Planner

Search our weather history database for the weather conditions in past years. The results will help you decide how hot, cold, wet, or windy it might be!

Date:

Astronomy

Mar. 26, 2014 Rise Set
Actual Time 6:55 AM CDT 7:23 PM CDT
Civil Twilight 6:27 AM CDT 7:51 PM CDT
Nautical Twilight 5:53 AM CDT 8:25 PM CDT
Astronomical Twilight 5:18 AM CDT 9:00 PM CDT
Moon 4:12 AM CDT (3/26) 2:54 PM CDT (3/26)
Length of Visible Light 13h 24m
Length of Day
12h 27m
Waning Crescent, 21% of the Moon is Illuminated
Mar 26
Waning Crescent
Mar 30
New
Apr 7
First Quarter
Apr 15
Full
Apr 22
Last Quarter

Hourly Weather History & Observations

Time (CDT) Temp. Windchill Dew Point Humidity Pressure Visibility Wind Dir Wind Speed Gust Speed Precip Events Conditions
12:15 AM 14.2 °F 8.4 °F 7.7 °F 75% 30.17 in 10.0 mi SW 3.5 mph - N/A   Clear
12:35 AM 14.4 °F 6.9 °F 7.5 °F 74% 30.17 in 10.0 mi SW 4.6 mph - N/A   Clear
12:54 AM 14.5 °F 7.1 °F 7.7 °F 74% 30.17 in 10.0 mi SW 4.6 mph - N/A   Clear
1:15 AM 14.0 °F 6.5 °F 7.3 °F 75% 30.17 in 10.0 mi SW 4.6 mph - N/A   Clear
1:35 AM 13.3 °F 7.3 °F 7.5 °F 78% 30.17 in 10.0 mi SSW 3.5 mph - N/A   Clear
1:55 AM 13.8 °F 6.2 °F 7.2 °F 75% 30.17 in 10.0 mi SSW 4.6 mph - N/A   Clear
2:15 AM 14.0 °F 6.5 °F 7.2 °F 74% 30.17 in 10.0 mi SSW 4.6 mph - N/A   Clear
2:35 AM 13.8 °F 6.2 °F 6.8 °F 74% 30.17 in 10.0 mi South 4.6 mph - N/A   Clear
2:55 AM 13.8 °F 6.2 °F 6.8 °F 74% 30.17 in 10.0 mi South 4.6 mph - N/A   Clear
3:15 AM 13.3 °F 5.6 °F 7.2 °F 77% 30.17 in 10.0 mi South 4.6 mph - N/A   Clear
3:35 AM 13.1 °F 4.0 °F 7.2 °F 77% 30.17 in 10.0 mi South 5.8 mph - N/A   Clear
3:55 AM 12.7 °F 5.0 °F 6.8 °F 77% 30.17 in 10.0 mi South 4.6 mph - N/A   Clear
4:15 AM 13.1 °F 5.4 °F 6.8 °F 76% 30.17 in 10.0 mi South 4.6 mph - N/A   Clear
4:35 AM 12.4 °F 3.1 °F 6.6 °F 78% 30.17 in 10.0 mi South 5.8 mph - N/A   Clear
4:55 AM 12.6 °F 3.4 °F 6.8 °F 78% 30.17 in 10.0 mi South 5.8 mph - N/A   Clear
5:15 AM 12.7 °F 3.6 °F 6.8 °F 77% 30.17 in 10.0 mi South 5.8 mph - N/A   Clear
5:35 AM 12.6 °F 3.4 °F 6.8 °F 78% 30.16 in 10.0 mi South 5.8 mph - N/A   Clear
5:55 AM 12.6 °F 2.2 °F 7.0 °F 78% 30.16 in 10.0 mi South 6.9 mph - N/A   Clear
6:15 AM 12.6 °F 3.4 °F 6.8 °F 78% 30.16 in 10.0 mi South 5.8 mph - N/A   Clear
6:35 AM 13.1 °F 4.0 °F 7.0 °F 77% 30.16 in 10.0 mi South 5.8 mph - N/A   Clear
6:55 AM 12.9 °F 3.8 °F 7.3 °F 78% 30.16 in 10.0 mi South 5.8 mph - N/A   Clear
7:15 AM 14.0 °F 5.1 °F 7.5 °F 75% 30.17 in 10.0 mi South 5.8 mph - N/A   Clear
7:35 AM 14.4 °F 3.3 °F 8.1 °F 76% 30.18 in 10.0 mi South 8.1 mph - N/A   Clear
7:55 AM 15.6 °F 4.9 °F 8.6 °F 74% 30.18 in 10.0 mi South 8.1 mph - N/A   Clear
8:15 AM 17.4 °F 6.2 °F 9.9 °F 72% 30.18 in 10.0 mi South 9.2 mph - N/A   Clear
8:35 AM 19.0 °F 7.5 °F 10.6 °F 70% 30.17 in 10.0 mi South 10.4 mph - N/A   Clear
8:55 AM 19.9 °F 7.9 °F 10.8 °F 68% 30.16 in 10.0 mi South 11.5 mph 17.3 mph N/A   Scattered Clouds
9:15 AM 21.4 °F 9.7 °F 12.0 °F 67% 30.15 in 10.0 mi South 11.5 mph - N/A   Mostly Cloudy
9:35 AM 22.6 °F 10.1 °F 12.7 °F 66% 30.14 in 10.0 mi SSE 13.8 mph - N/A   Mostly Cloudy
9:55 AM 23.7 °F 11.5 °F 12.7 °F 63% 30.15 in 10.0 mi South 13.8 mph 17.3 mph N/A   Scattered Clouds
10:15 AM 23.4 °F 11.6 °F 12.6 °F 63% 30.15 in 10.0 mi South 12.7 mph - N/A   Mostly Cloudy
10:35 AM 24.3 °F 13.3 °F 13.1 °F 63% 30.13 in 10.0 mi South 11.5 mph - N/A   Mostly Cloudy
10:55 AM 25.0 °F 12.6 °F 13.1 °F 61% 30.12 in 10.0 mi South 15.0 mph - N/A   Scattered Clouds
11:15 AM 26.6 °F 13.4 °F 13.1 °F 57% 30.12 in 10.0 mi South 18.4 mph 21.9 mph N/A   Scattered Clouds
11:33 AM 27.5 °F 15.9 °F 13.3 °F 55% 30.11 in 10.0 mi South 15.0 mph 19.6 mph N/A   Mostly Cloudy
11:55 AM 28.9 °F 18.2 °F 13.8 °F 53% 30.10 in 10.0 mi South 13.8 mph - N/A   Overcast
12:15 PM 30.0 °F 18.7 °F 14.0 °F 51% 30.09 in 10.0 mi South 16.1 mph 21.9 mph N/A   Mostly Cloudy
12:35 PM 30.2 °F 19.3 °F 14.2 °F 51% 30.08 in 10.0 mi South 15.0 mph 20.7 mph N/A   Overcast
12:55 PM 31.8 °F 23.3 °F 15.3 °F 50% 30.07 in 10.0 mi SSE 10.4 mph 20.7 mph N/A   Mostly Cloudy
1:15 PM 32.0 °F 21.6 °F 14.4 °F 48% 30.06 in 10.0 mi South 15.0 mph - N/A   Overcast
1:35 PM 32.0 °F 21.6 °F 14.2 °F 48% 30.04 in 10.0 mi South 15.0 mph 19.6 mph N/A   Overcast
1:55 PM 32.0 °F 20.8 °F 14.5 °F 49% 30.03 in 10.0 mi SSE 17.3 mph 23.0 mph N/A   Overcast
2:15 PM 32.0 °F 21.6 °F 15.3 °F 50% 30.01 in 10.0 mi SSE 15.0 mph 21.9 mph N/A   Overcast
2:35 PM 32.9 °F 21.3 °F 15.4 °F 49% 29.99 in 10.0 mi SSE 19.6 mph 23.0 mph N/A   Overcast
2:55 PM 34.0 °F 22.1 °F 16.3 °F 49% 29.97 in 10.0 mi SE 21.9 mph 27.6 mph N/A   Overcast
3:15 PM 35.8 °F 24.8 °F 17.8 °F 48% 29.95 in 10.0 mi SSE 20.7 mph 27.6 mph N/A   Overcast
3:35 PM 36.0 °F 24.7 °F 16.5 °F 45% 29.93 in 10.0 mi SSE 21.9 mph 27.6 mph N/A   Mostly Cloudy
3:55 PM 36.3 °F 25.2 °F 16.9 °F 45% 29.91 in 10.0 mi SSE 21.9 mph 29.9 mph N/A   Mostly Cloudy
4:15 PM 37.6 °F 26.6 °F 17.6 °F 44% 29.88 in 10.0 mi SE 23.0 mph 28.8 mph N/A   Overcast
4:35 PM 37.2 °F 26.1 °F 16.2 °F 42% 29.88 in 10.0 mi SSE 23.0 mph 29.9 mph N/A   Mostly Cloudy
4:55 PM 36.7 °F 26.0 °F 16.7 °F 44% 29.87 in 10.0 mi SSE 20.7 mph 28.8 mph N/A   Scattered Clouds
5:15 PM 36.9 °F 26.8 °F 17.6 °F 46% 29.87 in 10.0 mi SSE 18.4 mph 27.6 mph N/A   Clear
5:35 PM 36.0 °F 25.3 °F 18.5 °F 49% 29.86 in 10.0 mi SSE 19.6 mph 27.6 mph N/A   Clear
5:55 PM 35.2 °F 24.1 °F 18.3 °F 50% 29.86 in 10.0 mi SSE 20.7 mph 27.6 mph N/A   Mostly Cloudy
6:15 PM 35.2 °F 24.7 °F 18.9 °F 51% 29.86 in 10.0 mi SSE 18.4 mph 27.6 mph N/A   Overcast
6:35 PM 35.1 °F 23.5 °F 19.2 °F 53% 29.86 in 10.0 mi SSE 21.9 mph 26.5 mph N/A   Overcast
6:55 PM 35.1 °F 25.9 °F 19.0 °F 52% 29.86 in 10.0 mi SSE 13.8 mph 20.7 mph N/A   Overcast
7:15 PM 35.1 °F 24.8 °F 19.2 °F 53% 29.85 in 10.0 mi SSE 17.3 mph 23.0 mph N/A   Overcast
7:35 PM 35.1 °F 24.8 °F 19.4 °F 53% 29.84 in 10.0 mi SSE 17.3 mph 24.2 mph N/A   Overcast
7:55 PM 35.1 °F 23.8 °F 19.6 °F 53% 29.83 in 10.0 mi SSE 20.7 mph 25.3 mph N/A   Overcast
8:15 PM 34.9 °F 25.7 °F 19.8 °F 54% 29.83 in 10.0 mi SSE 13.8 mph 20.7 mph N/A   Overcast
8:35 PM 35.1 °F 24.8 °F 19.9 °F 54% 29.81 in 10.0 mi SSE 17.3 mph 21.9 mph N/A   Overcast
8:55 PM 35.1 °F 24.8 °F 20.3 °F 55% 29.81 in 10.0 mi SSE 17.3 mph 24.2 mph N/A   Overcast
9:15 PM 35.1 °F 24.8 °F 20.3 °F 55% 29.80 in 10.0 mi SSE 17.3 mph 23.0 mph N/A   Overcast
9:35 PM 35.2 °F 25.0 °F 20.8 °F 56% 29.79 in 10.0 mi SSE 17.3 mph 23.0 mph N/A   Overcast
9:55 PM 35.6 °F 25.5 °F 20.7 °F 55% 29.78 in 10.0 mi SSE 17.3 mph 23.0 mph N/A   Overcast
10:15 PM 35.6 °F 25.2 °F 20.8 °F 55% 29.77 in 10.0 mi SSE 18.4 mph 23.0 mph N/A   Overcast
10:35 PM 36.1 °F 26.2 °F 20.7 °F 53% 29.77 in 10.0 mi SSE 17.3 mph 23.0 mph N/A   Overcast
10:55 PM 36.5 °F 27.8 °F 20.8 °F 53% 29.76 in 10.0 mi SSE 13.8 mph 21.9 mph N/A   Overcast
11:15 PM 37.2 °F 27.9 °F 20.7 °F 51% 29.75 in 10.0 mi South 16.1 mph 25.3 mph N/A   Overcast
11:35 PM 38.3 °F 29.0 °F 20.7 °F 49% 29.75 in 10.0 mi South 17.3 mph 24.2 mph N/A   Overcast
11:55 PM 38.8 °F 30.8 °F 21.0 °F 49% 29.75 in 10.0 mi South 13.8 mph 24.2 mph N/A   Overcast